Tracking 20712 objects as of 28-May-2020
HD Live streaming from Space Station
objects crossing your sky now

CZ-3B R/B

Track CZ-3B R/B now!


NORAD ID: 41587
Int'l Code: 2016-037B
Perigee: 220.5 km
Apogee: 29,529.5 km
Inclination: 19.2 °
Period: 513.7 minutes
Semi major axis: 21245 km
RCS: Unknown
Launch date: June 12, 2016
Source: People's Republic of China (PRC)
Launch site: Xichang Space Center, China (XSC)

Note: This is a ROCKET BODY
aabbcc
Your satellite tracking list
Your tracking list is empty




NASA's NSSDC Master Catalog

Two Line Element Set (TLE):
1 41587U 16037B   20148.28658631  .00005240  00000-0  46300-3 0  9993
2 41587  19.2435 179.2364 6897548 325.9581   4.7613  2.80342057 37498
Source of the keplerian elements: AFSPC